RADCAL 1 22698U 93041A 10247.60002222 +.00000001 +00000-0 -47823-5 0 06989 2 22698 089.5482 003.9032 0087939 307.5350 051.7872 14.22846882892465 STRV 1A 1 23125U 94034B 10245.55821383 +.00001613 +00000-0 +31398-3 0 06489 2 23125 007.0152 206.5244 6827043 047.1215 352.8357 02.87392566152114 STRV 1B 1 23126U 94034C 10246.46993700 .00001769 00000-0 39402-3 0 6659 2 23126 007.2142 142.7335 6776103 170.9142 213.8767 02.94439373154650 HELIOS 1A 1 23605U 95033A 09342.63424549 .00000084 00000-0 24979-4 0 7570 2 23605 098.0988 276.1119 0001199 153.0459 207.0793 14.63838992770694 REX 2 1 23814U 96014A 10248.35590883 .00000023 00000-0 54507-5 0 705 2 23814 090.1527 280.3282 0020615 301.0098 058.9068 14.23900892752899 COSMOS 2346 1 24953U 97052A 10249.19209798 .00000047 00000-0 30811-4 0 8916 2 24953 082.9251 341.8920 0039086 320.7854 039.0476 13.79441586652116 ARGOS 1 25634U 99008A 10248.20247259 -.00000151 00000-0 -50519-4 0 1010 2 25634 098.9543 296.1982 0010808 115.1790 245.0525 14.18932802597156 HELIOS 1B 1 25977U 99064A 10247.67959953 +.00000053 +00000-0 +15060-4 0 00967 2 25977 098.3372 269.0816 0001818 015.0187 345.1072 14.77849785577579 MTI 1 26102U 00014A 10249.08523854 .00000914 00000-0 56133-4 0 455 2 26102 097.2739 035.4594 0020025 010.0949 122.4382 15.12283842576772 STRV 1C 1 26610U 00072C 10247.81183015 -.00000377 00000-0 00000+0 0 1062 2 26610 006.3096 128.7983 7335920 005.8557 359.5423 02.03461487 72878 OFEQ 5 1 27434U 02025A 10249.10666897 .00001272 00000-0 53625-4 0 5799 2 27434 143.4656 085.7165 0023848 137.9287 002.1626 15.06129627460540 HELIOS-2A 1 28492U 04049A 09342.65280378 .00000081 00000-0 24421-4 0 5621 2 28492 098.1032 276.3949 0001504 116.1557 243.9793 14.63856542265662 ESSAIM-1 1 28494U 04049C 09342.61910954 .00000110 00000-0 26767-4 0 6347 2 28494 098.2805 303.9425 0003783 056.4647 303.6900 14.70162313266711 ESSAIM-2 1 28495U 04049D 09342.61861570 .00000112 00000-0 27221-4 0 6581 2 28495 098.2815 304.0628 0004617 050.1900 309.9695 14.70162417266715 ESSAIM-3 1 28496U 04049E 09342.61919833 -.00000015 00000-0 60751-5 0 5878 2 28496 098.2942 308.6273 0009789 059.1704 301.0444 14.70161453266892 ESSAIM-4 1 28497U 04049F 09342.61873613 -.00000018 00000-0 56285-5 0 6448 2 28497 098.2946 308.6727 0012914 054.7758 305.4637 14.70160835266890 MIDSTAR 1 1 30773U 07006B 10248.14695562 -.00000305 00000-0 00000+0 0 9950 2 30773 046.0341 146.0731 0008667 066.1543 294.0264 15.24274232194614 CFESAT 1 30777U 07006F 10249.24332163 .00000522 00000-0 40803-4 0 9120 2 30777 035.4333 278.0911 0002394 129.3844 230.7085 15.03261253192201 NFIRE 1 31140U 07014A 10247.67661811 +.00005187 +00000-0 +85476-4 0 02528 2 31140 048.2273 327.0601 0008132 239.9714 120.0424 15.53952903191630 OFEQ 7 1 31601U 07025A 10249.02019438 .00003657 00000-0 12986-3 0 6524 2 31601 141.7484 257.9804 0065583 115.3072 287.7048 15.21629093180310 SAR LUPE 2 1 31797U 07030A 10249.18228322 .00001068 00000-0 43519-4 0 5583 2 31797 098.1266 104.1032 0013361 103.1235 044.8238 15.26986481177195 SAR LUPE 3 1 32283U 07053A 10249.05351295 .00001427 00000-0 57183-4 0 1881 2 32283 098.0956 162.6256 0006733 202.1236 283.4071 15.26928322158683 SAR LUPE 4 1 32750U 08014A 10249.17012891 .00001054 00000-0 42964-4 0 7318 2 32750 098.1697 035.0907 0017693 327.2054 147.8130 15.26980677136153 SAR LUPE 5 1 33244U 08036A 10249.10351424 .00001603 00000-0 63830-4 0 3638 2 33244 098.1407 161.9440 0018832 018.3045 093.3480 15.26840077118383 SPIRALE A 1 33751U 09008C 10246.94289636 -.00000212 +00000-0 +10000-3 0 02900 2 33751 002.0377 062.3662 7149512 269.0151 016.3844 02.25830463012842 SPIRALE B 1 33752U 09008D 10246.51921624 -.00000117 00000-0 17223-2 0 2989 2 33752 002.0888 063.4656 7144062 267.2539 016.9273 02.25831728 12847 TACSAT 3 1 35001U 09028A 10248.99307999 .00004729 00000-0 11084-3 0 3755 2 35001 040.4554 088.4555 0022147 253.9126 105.9251 15.42539296 73113